TimeWET,TemperatureF,Dew PointF,Humidity,Sea Level PressureIn,VisibilityMPH,Wind Direction,Wind SpeedMPH,Gust SpeedMPH,PrecipitationIn,Events,Conditions,WindDirDegrees,DateUTC
12:00 AM,57,54,88,30.12,6,SW,3.5,,,,Partly Cloudy,220,2012-11-21 00:00:00
12:00 AM,57.2,53.6,88,30.12,6.2,SW,3.5,-,N/A,,Scattered Clouds,220,2012-11-21 00:00:00
12:30 AM,57.2,55.4,94,30.12,6.2,SW,4.6,-,N/A,,Scattered Clouds,230,2012-11-21 00:30:00
1:00 AM,57.2,55.4,94,30.12,6.2,SSW,4.6,-,N/A,,Scattered Clouds,210,2012-11-21 01:00:00
1:30 AM,57.2,55.4,94,30.12,6.2,South,3.5,-,N/A,,Scattered Clouds,190,2012-11-21 01:30:00
2:00 AM,57.2,55.4,94,30.09,5.6,South,3.5,-,N/A,,Scattered Clouds,170,2012-11-21 02:00:00
2:30 AM,57.2,55.4,94,30.09,6.2,SE,3.5,-,N/A,,Scattered Clouds,140,2012-11-21 02:30:00
3:00 AM,56,54,91,30.09,6,ESE,1.2,,,,Partly Cloudy,110,2012-11-21 03:00:00
3:00 AM,57.2,53.6,88,30.09,6.2,ESE,1.2,-,N/A,,Scattered Clouds,120,2012-11-21 03:00:00
3:30 AM,55.4,53.6,94,30.09,6.2,East,3.5,-,N/A,,Scattered Clouds,80,2012-11-21 03:30:00
4:00 AM,55.4,53.6,94,30.09,6.2,ENE,4.6,-,N/A,,Scattered Clouds,70,2012-11-21 04:00:00
4:30 AM,53.6,51.8,94,30.09,6.2,East,2.3,-,N/A,,Partly Cloudy,80,2012-11-21 04:30:00
5:00 AM,51.8,51.8,100,30.09,5.6,ENE,4.6,-,N/A,,Partly Cloudy,70,2012-11-21 05:00:00
5:30 AM,51.8,51.8,100,30.09,6.2,East,3.5,-,N/A,,Partly Cloudy,80,2012-11-21 05:30:00
6:00 AM,51,51,99,30.11,6,East,3.5,,,,Scattered Clouds,80,2012-11-21 06:00:00
6:00 AM,50.0,50.0,100,30.09,-9999.0,East,3.5,-,N/A,,Clear,80,2012-11-21 06:00:00
6:30 AM,50.0,50.0,100,30.09,-9999.0,East,3.5,-,N/A,,Clear,90,2012-11-21 06:30:00
7:00 AM,50.0,50.0,100,30.09,-9999.0,East,4.6,-,N/A,,Clear,100,2012-11-21 07:00:00
7:30 AM,50.0,50.0,100,30.09,-9999.0,East,4.6,-,N/A,,Clear,80,2012-11-21 07:30:00
8:00 AM,51.8,51.8,100,30.09,5.6,ENE,5.8,-,N/A,,Unknown,70,2012-11-21 08:00:00
8:30 AM,53.6,53.6,100,30.09,-9999.0,ENE,6.9,-,N/A,,Clear,70,2012-11-21 08:30:00
9:00 AM,58,54,81,30.09,6,East,6.9,,,,Clear,90,2012-11-21 09:00:00
9:00 AM,57.2,53.6,88,30.09,-9999.0,East,5.8,-,N/A,,Clear,90,2012-11-21 09:00:00
9:30 AM,60.8,53.6,77,30.09,-9999.0,East,6.9,-,N/A,,Clear,80,2012-11-21 09:30:00
10:00 AM,62.6,53.6,72,30.09,-9999.0,ENE,8.1,-,N/A,,Clear,60,2012-11-21 10:00:00
10:30 AM,64.4,51.8,64,30.09,-9999.0,ENE,10.4,-,N/A,,Clear,60,2012-11-21 10:30:00
11:00 AM,64.4,51.8,64,30.09,-9999.0,ENE,12.7,-,N/A,,Clear,60,2012-11-21 11:00:00
11:30 AM,68.0,51.8,56,30.09,-9999.0,ENE,12.7,-,N/A,,Clear,60,2012-11-21 11:30:00
12:00 PM,69,52,45,30.03,6,ENE,9.2,,,,Clear,70,2012-11-21 12:00:00
12:00 PM,68.0,50.0,52,30.06,-9999.0,ENE,10.4,-,N/A,,Clear,70,2012-11-21 12:00:00
12:30 PM,69.8,50.0,49,30.06,-9999.0,ENE,10.4,-,N/A,,Clear,60,2012-11-21 12:30:00
1:00 PM,69.8,48.2,46,30.04,-9999.0,East,10.4,-,N/A,,Clear,80,2012-11-21 13:00:00
1:30 PM,71.6,48.2,43,30.04,-9999.0,ENE,9.2,-,N/A,,Clear,70,2012-11-21 13:30:00
2:00 PM,71.6,48.2,43,30.04,6.2,ENE,6.9,-,N/A,,Mostly Cloudy,70,2012-11-21 14:00:00
2:30 PM,71.6,48.2,43,30.01,6.2,NE,8.1,-,N/A,,Mostly Cloudy,50,2012-11-21 14:30:00
3:00 PM,72,48,31,29.95,6,ENE,8.1,,,,Scattered Clouds,70,2012-11-21 15:00:00
3:00 PM,71.6,48.2,43,30.01,6.2,ENE,6.9,-,N/A,,Mostly Cloudy,70,2012-11-21 15:00:00
3:30 PM,73.4,48.2,41,30.01,6.2,NE,8.1,-,N/A,,Mostly Cloudy,50,2012-11-21 15:30:00
4:00 PM,71.6,50.0,46,30.01,6.2,NE,6.9,-,N/A,,Mostly Cloudy,50,2012-11-21 16:00:00
4:30 PM,71.6,48.2,43,30.01,6.2,ENE,10.4,-,N/A,,Mostly Cloudy,60,2012-11-21 16:30:00
5:00 PM,69.8,46.4,43,30.01,6.2,ENE,9.2,-,N/A,,Mostly Cloudy,60,2012-11-21 17:00:00
5:30 PM,69.8,46.4,43,30.01,6.2,NE,8.1,-,N/A,,Mostly Cloudy,40,2012-11-21 17:30:00
6:00 PM,68,48,38,29.98,6,NNE,4.6,,,,Scattered Clouds,20,2012-11-21 18:00:00
6:00 PM,68.0,48.2,49,30.04,6.2,NNE,4.6,-,N/A,,Mostly Cloudy,20,2012-11-21 18:00:00
6:30 PM,66.2,48.2,52,30.04,6.2,NNE,4.6,-,N/A,,Mostly Cloudy,30,2012-11-21 18:30:00
7:00 PM,66.2,48.2,52,30.04,6.2,NE,8.1,-,N/A,,Mostly Cloudy,40,2012-11-21 19:00:00
7:30 PM,64.4,48.2,56,30.04,6.2,Calm,Calm,-,N/A,,Mostly Cloudy,0,2012-11-21 19:30:00
8:00 PM,64.4,50.0,59,30.06,6.2,Calm,Calm,-,N/A,,Scattered Clouds,0,2012-11-21 20:00:00
8:30 PM,62.6,51.8,68,30.06,5.0,SW,2.3,-,N/A,,Scattered Clouds,220,2012-11-21 20:30:00
9:00 PM,58,51,71,30.08,5,West,3.5,,,,Scattered Clouds,270,2012-11-21 21:00:00
9:00 PM,59.0,51.8,77,30.09,5.0,West,3.5,-,N/A,,Scattered Clouds,270,2012-11-21 21:00:00
9:30 PM,59.0,51.8,77,30.06,4.3,NE,3.5,-,N/A,,Scattered Clouds,40,2012-11-21 21:30:00
10:00 PM,60.8,53.6,77,30.09,6.2,SSW,2.3,-,N/A,,Scattered Clouds,210,2012-11-21 22:00:00
10:30 PM,60.8,53.6,77,30.09,6.2,Variable,2.3,-,N/A,,Scattered Clouds,0,2012-11-21 22:30:00
11:00 PM,59.0,51.8,77,30.09,6.2,WNW,3.5,-,N/A,,Scattered Clouds,290,2012-11-21 23:00:00
11:30 PM,59.0,53.6,82,30.09,5.6,Calm,Calm,-,N/A,,Scattered Clouds,0,2012-11-21 23:30:00